Home > Weather > Kampala > Past weeks

Flag for Uganda Past Weather in Kampala, Uganda — Yesterday and Last 2 Weeks

Now
70 °F

Passing clouds.


Feels Like: 70 °F
Forecast: 55 / 84 °F
Wind: 7 mph from Northwest

Location: Entebbe Airport

Current Time: Jul 27, 2016 at 1:03:30 AM

Latest Report: Jul 27, 2016 at 12:00 AM


Visibility: N/A

Pressure: 30.04 "Hg (26.04 "Hg at 1230m altitude)

Humidity: 88%

Dew Point: 66 °F

Location of KampalaLocation

Past Weather in Kampala — Graph

°F

Kampala Temperature Yesterday

Maximum temperature yesterday: 79 °F (at 3:00 PM)
Minimum temperature yesterday: 66 °F (at 12:00 AM)
Average temperature yesterday: 72 °F

High & Low Weather Summary for the Past Weeks

 TemperatureHumidityPressure
High84 °F (Jul 16, 1:00 AM)100% (Jul 17, 6:00 AM)30.15 "Hg (Jul 17, 6:00 AM)
Low64 °F (Jul 15, 6:00 AM)54% (Jul 14, 3:00 PM)29.98 "Hg (Jul 24, 4:00 PM)
Average72 °F78%30.06 "Hg
* Reported Jul 12 12:00 AM — Jul 27 12:00 AM, Kampala, Weather by CustomWeather, © 2016

Note: Actual official high and low records may vary slightly from our data, if they occured in-between our weather recording intervals... More about our weather records

Advertising

Kampala Weather History for the Previous 24 Hours

Scroll right to see more
 ConditionsComfort  
Time TempWeatherWind HumidityBarometerVisibility
12:00 AM
Wed, Jul 27
70 °FPassing clouds.7 mph88%30.04 "HgN/A
11:00 PM
Tue, Jul 26
70 °FPassing clouds.6 mph88%30.04 "HgN/A
10:00 PM72 °FPassing clouds.7 mph83%30.04 "HgN/A
9:00 PM72 °FPassing clouds.2 mph73%30.01 "HgN/A
8:00 PM73 °FPassing clouds.3 mph74%30.01 "HgN/A
7:00 PM73 °FPassing clouds.5 mph74%30.01 "HgN/A
6:00 PM77 °FPassing clouds.9 mph65%30.01 "HgN/A
5:00 PM77 °FPassing clouds.12 mph65%30.01 "HgN/A
4:00 PM79 °FPassing clouds.12 mph65%30.01 "HgN/A
3:00 PM79 °FPassing clouds.13 mph65%30.04 "HgN/A
2:00 PM77 °FPassing clouds.9 mph65%30.07 "Hg6 mi
1:00 PM77 °FPassing clouds.7 mph69%30.07 "Hg6 mi
12:00 PM77 °FPassing clouds.9 mph74%30.09 "Hg5 mi
11:00 AM77 °FPartly sunny.8 mph69%30.09 "Hg4 mi
10:00 AM72 °FPartly sunny.6 mph78%30.09 "Hg4 mi
9:00 AM70 °FPartly sunny.7 mph83%30.09 "Hg4 mi
7:00 AM66 °FPassing clouds.6 mph88%30.04 "Hg6 mi
6:00 AM66 °FMild.8 mph88%30.04 "Hg6 mi
5:00 AM66 °FPassing clouds.5 mph88%30.01 "HgN/A
4:00 AM68 °FPassing clouds.6 mph83%30.01 "HgN/A
3:00 AM68 °FPassing clouds.9 mph83%30.01 "HgN/A
2:00 AM68 °FPassing clouds.7 mph88%30.01 "HgN/A
1:00 AM66 °FPassing clouds.7 mph94%30.01 "HgN/A
Weather by CustomWeather, © 2016

See weather overviewHow to use our weather pages